Location: Little Suamico
(44.7175°N, 88.0093°W)
Time: 06:57:46
(UTC+00:00)

X-37B - Pass Details

Date: 22 April 2021
Orbit: 386 x 389 km, 45.0° (Epoch: 08 May)

Event Time Altitude Azimuth Distance (km) Brightness Sun altitude
Exits shadow 10:18:47 - 278° (W) 1,744 3.4 -6.9°
Reaches altitude 10° 10:19:35 10° 278° (W) 1,415 2.9 -6.8°
Maximum altitude 10:22:46 83° 191° (S) 394 0.6 -6.3°
Drops below altitude 10° 10:25:57 10° 103° (ESE) 1,411 4.3 -5.7°
Sets 10:28:00 0° 102° (ESE) 2,263 5.5 -5.4°
